Espaço - Ciências - Fenômenos Naturais
Meteógrafos Informações Meteorológicas em tempo real

Aeroporto de Congonhas

Histórico do Tempo
Temperatura atual: 26 graus 78 F    Umidade relativa: 50 %
Velocidade do vento: 03 nós 5 Km/h    Direção: 050 graus NE
Ajuste do altímetro ..: 1018 HPA
Visibilidade: Ótima    Tempo presente: Céu Limpo

Observação

Data Hora BRTTempo°CUmidadePressãoVentoVisib.
24/04 - 14:55   Não Disponível 25° 50% 1019 Leste/5 km/h OK
24/04 - 13:55   Céu Limpo 25° 53% 1020 Este-sudeste/5 km/h OK
24/04 - 12:55   Céu Limpo 23° 57% 1021 Leste/7 km/h OK
24/04 - 11:55   Céu Limpo 23° 57% 1021 Leste/7 km/h OK
24/04 - 10:55   Céu Limpo 20° 60% 1023 Leste/16 km/h OK
24/04 - 09:55   Céu Limpo 20° 60% 1023 Leste/16 km/h OK
24/04 - 08:55   Céu Limpo 17° 72% 1022 Este-nordeste/12 km/h OK
24/04 - 07:55   Céu Limpo 17° 72% 1022 Este-nordeste/12 km/h OK
24/04 - 06:55   Céu Limpo 16° 72% 1021 Leste/9 km/h OK
24/04 - 05:55   Não Disponível 16° 72% 1021 Sudeste/10 km/h 9999
24/04 - 04:55   Parcialmente Nublado 16° 77% 1021 Sudeste/10 km/h OK
24/04 - 03:55   Não Disponível 16° 72% 1022 Sudeste/10 km/h 9999
24/04 - 02:55   Céu Encoberto 17° 67% 1022 Sudeste/14 km/h OK
24/04 - 01:55   Céu Encoberto 17° 67% 1022 Sudeste/14 km/h OK
24/04 - 00:55   Muitas Nuvens 17° 67% 1023 Este-sudeste/10 km/h 9999
23/04 - 23:55   Parcialmente Nublado 17° 67% 1023 Sudeste/14 km/h OK
23/04 - 22:55   Céu Encoberto 17° 72% 1023 Sudeste/16 km/h OK
23/04 - 21:55   Céu Encoberto 17° 72% 1023 Sudeste/12 km/h OK
23/04 - 20:55   Parcialmente Nublado 17° 77% 1023 Sudeste/18 km/h OK
23/04 - 19:55   Poucas nuvens esparsas 17° 82% 1022 Sul-sudeste/21 km/h OK
23/04 - 18:55   Céu Encoberto 17° 82% 1022 Sudeste/21 km/h OK
23/04 - 17:55   Parcialmente Nublado 18° 72% 1022 Sudeste/19 km/h OK
23/04 - 16:55   Parcialmente Nublado 18° 77% 1021 Sul-sudeste/21 km/h OK
23/04 - 15:55   Parcialmente Nublado 18° 77% 1021 Sul-sudeste/21 km/h OK


Apolo11.com - Todos os direitos reservados - 2000 - 2017
Política de Privacidade   |     Termo de Uso e Licenciamento   |  -   Entre em Contato

"Cada vez que eu indico alguém para um cargo, crio 10 inimigos e um ingrato" - Molière